Phoenix Deer Valley, AZ

6:38 AM MST on December 13, 2019 (GMT -0700)
Phoenix-Deer Valley Municipal

Weather History for KDVT - November, 2019

Change the Weather History Date:

Wednesday, November 20, 2019

  Actual Average Record
Temperature  
Mean Temperature 58 °F -  
Max Temperature 63 °F 68 °F 84 °F (2002)
Min Temperature 53 °F 48 °F 42 °F (2000)
Degree Days  
Heating Degree Days 7    
Growing Degree Days 8 (Base 50)    
Moisture  
Dew Point 56 °F    
Average Humidity 92    
Maximum Humidity 100    
Minimum Humidity 72    
Precipitation  
Precipitation 2.26 in - - ()
Sea Level Pressure  
Sea Level Pressure 29.64 in    
Wind  
Wind Speed 9 mph ()    
Max Wind Speed 20 mph    
Max Gust Speed 32 mph    
Visibility 5.1 miles    
Events Fog , Rain , Thunderstorm    
Averages and records for this station are not official NWS values.
T = Trace of Precipitation, MM = Missing Value Source: Averaged Metar Reports

Daily Weather History Graph

Daily Weather History Graph

Search for Another Location

Airport or City:

Astronomy

Nov. 20, 2019 Rise Set
Actual Time 7:04 AM MST 5:22 PM MST
Civil Twilight 6:38 AM MST 5:49 PM MST
Nautical Twilight 6:07 AM MST 6:19 PM MST
Astronomical Twilight 5:37 AM MST 6:49 PM MST
Moon 12:19 AM MST (11/20) 1:57 PM MST (11/20)
Length of Visible Light 11h 11m
Length of Day
10h 18m
Last Quarter, 40% of the Moon is Illuminated
Nov 20
Last Quarter
Nov 26
New
Dec 3
First Quarter
Dec 11
Full
Dec 18
Last Quarter

Hourly Weather History & Observations

Time (MST) Temp. Dew Point Humidity Pressure Visibility Wind Dir Wind Speed Gust Speed Precip Events Conditions
12:53 AM 59.0 °F 57.9 °F 96% 29.62 in 10.0 mi SE 10.4 mph - N/A   Overcast
1:53 AM 59.0 °F 57.0 °F 93% 29.60 in 10.0 mi SE 9.2 mph - N/A   Mostly Cloudy
2:31 AM 59.0 °F 57.0 °F 93% 29.64 in 10.0 mi ESE 12.7 mph - N/A Thunderstorm Mostly Cloudy
2:53 AM 59.0 °F 57.0 °F 93% 29.58 in 10.0 mi ESE 10.4 mph - N/A   Mostly Cloudy
3:53 AM 59.0 °F 57.9 °F 96% 29.58 in 10.0 mi ESE 6.9 mph - 0.04 in   Overcast
4:53 AM 60.1 °F 57.0 °F 90% 29.57 in 10.0 mi SE 10.4 mph - N/A   Partly Cloudy
5:53 AM 59.0 °F 55.9 °F 90% 29.58 in 8.0 mi SE 11.5 mph - 0.00 in Rain Light Rain
6:53 AM 57.9 °F 57.0 °F 97% 29.59 in 4.0 mi ESE 11.5 mph - 0.09 in Rain Heavy Rain
7:53 AM 57.9 °F 57.0 °F 97% 29.61 in 2.0 mi SSE 15.0 mph 21.9 mph 0.06 in Rain Rain
7:58 AM 57.9 °F 57.0 °F 97% 29.66 in 1.8 mi South 10.4 mph 21.9 mph 0.03 in Rain Heavy Rain
8:36 AM 57.0 °F 55.9 °F 96% 29.66 in 1.2 mi South 6.9 mph - 0.42 in Rain Rain
8:41 AM 57.0 °F 55.9 °F 96% 29.66 in 3.0 mi SSE 6.9 mph - 0.42 in Rain Light Rain
8:53 AM 57.0 °F 57.0 °F 100% 29.63 in 10.0 mi SSE 5.8 mph - 0.42 in   Overcast
9:06 AM 57.9 °F 57.0 °F 97% 29.67 in 2.5 mi South 9.2 mph - 0.02 in Rain Rain
9:22 AM 57.9 °F 57.0 °F 97% 29.67 in 8.0 mi South 10.4 mph - 0.03 in Rain Light Rain
9:39 AM 57.9 °F 57.0 °F 97% 29.68 in 10.0 mi South 10.4 mph - 0.03 in   Overcast
9:53 AM 59.0 °F 57.9 °F 96% 29.65 in 10.0 mi SSE 9.2 mph - 0.03 in   Overcast
10:53 AM 62.1 °F 57.9 °F 86% 29.65 in 10.0 mi SE 10.4 mph - 0.00 in   Scattered Clouds
11:53 AM 63.0 °F 57.9 °F 84% 29.61 in 8.0 mi SSE 16.1 mph 21.9 mph 0.00 in Rain Light Rain
12:51 PM 60.8 °F 59.0 °F 94% 29.63 in 1.8 mi SSE 8.1 mph - 0.10 in Rain Heavy Rain
12:53 PM 61.0 °F 59.0 °F 93% 29.60 in 1.5 mi SSE 8.1 mph - 0.12 in Rain Heavy Rain
12:57 PM 60.1 °F 59.0 °F 96% 29.64 in 0.8 mi SE 6.9 mph - 0.09 in Rain , Thunderstorm Heavy Rain
1:05 PM 59.0 °F 59.0 °F 100% 29.64 in 0.5 mi SW 11.5 mph 17.3 mph 0.27 in Fog , Rain , Thunderstorm Heavy Rain
1:12 PM 57.9 °F 55.9 °F 93% 29.63 in 0.5 mi WSW 11.5 mph - 0.40 in Fog , Rain , Thunderstorm Heavy Thunderstorms and Rain
1:21 PM 57.9 °F 55.9 °F 93% 29.64 in 0.5 mi WSW 12.7 mph - 0.57 in Fog , Rain , Thunderstorm Heavy Thunderstorms and Rain
1:27 PM 57.9 °F 55.9 °F 93% 29.63 in 0.8 mi SW 6.9 mph - 0.62 in Rain Heavy Rain
1:32 PM 57.9 °F 57.0 °F 97% 29.63 in 1.2 mi SW 3.5 mph - 0.63 in Rain Light Rain
1:36 PM 57.9 °F 57.0 °F 97% 29.63 in 3.0 mi SW 4.6 mph - 0.63 in Rain Light Rain
1:53 PM 57.9 °F 57.0 °F 97% 29.59 in 3.0 mi Calm Calm - 0.65 in Rain Light Rain
1:56 PM 57.9 °F 57.0 °F 97% 29.62 in 1.8 mi Calm Calm - 0.01 in Rain Rain
2:01 PM 57.9 °F 57.0 °F 97% 29.64 in 1.0 mi North - - 0.05 in Rain Heavy Rain
2:03 PM 57.9 °F 57.0 °F 97% 29.64 in 0.8 mi North - - 0.08 in Rain Heavy Rain
2:08 PM 59.0 °F 57.0 °F 93% 29.63 in 1.0 mi SW 11.5 mph - 0.09 in Rain Rain
2:15 PM 59.0 °F 57.0 °F 93% 29.63 in 1.8 mi SSW 15.0 mph - 0.14 in Rain Rain
2:26 PM 60.1 °F 55.9 °F 86% 29.62 in 2.5 mi SSW 16.1 mph 23.0 mph 0.16 in Rain Light Rain
2:41 PM 60.1 °F 55.0 °F 83% 29.62 in 2.5 mi South 13.8 mph 31.1 mph 0.20 in Rain Light Rain
2:53 PM 61.0 °F 57.0 °F 87% 29.58 in 10.0 mi South 12.7 mph - 0.20 in Rain Light Rain
3:53 PM 62.1 °F 57.9 °F 86% 29.58 in 8.0 mi SE 3.5 mph - 0.06 in   Mostly Cloudy
4:05 PM 62.1 °F 57.9 °F 86% 29.61 in 4.0 mi SE 6.9 mph - 0.01 in Rain Light Rain
4:13 PM 62.1 °F 57.0 °F 84% 29.61 in 2.5 mi SSE 19.6 mph 28.8 mph 0.03 in Rain Light Rain
4:17 PM 62.1 °F 55.9 °F 80% 29.61 in 7.0 mi SSE 15.0 mph 28.8 mph 0.03 in Rain , Thunderstorm Light Rain
4:53 PM 61.0 °F 52.0 °F 72% 29.58 in 10.0 mi SSW 12.7 mph - 0.03 in   Overcast
5:20 PM 60.1 °F 54.0 °F 80% 29.62 in 2.0 mi SW 15.0 mph 29.9 mph 0.00 in Rain , Thunderstorm Light Rain
5:30 PM 55.9 °F 55.0 °F 97% 29.66 in 0.8 mi SW 13.8 mph 32.2 mph 0.36 in Rain , Thunderstorm Heavy Thunderstorms and Rain
5:37 PM 55.9 °F 55.0 °F 97% 29.68 in 0.8 mi WSW 17.3 mph 23.0 mph 0.48 in Rain , Thunderstorm Heavy Rain
5:40 PM 55.9 °F 55.0 °F 97% 29.68 in 1.2 mi SW 16.1 mph 23.0 mph 0.50 in Rain , Thunderstorm Heavy Rain
5:43 PM 55.9 °F 55.0 °F 97% 29.68 in 2.0 mi SW 18.4 mph 24.2 mph 0.51 in Rain , Thunderstorm Heavy Rain
5:48 PM 55.4 °F 55.4 °F 100% 29.67 in 3.0 mi WSW 11.5 mph 24.2 mph 0.52 in Rain , Thunderstorm Rain
5:53 PM 55.9 °F 55.0 °F 97% 29.64 in 6.0 mi WSW 13.8 mph - 0.53 in Rain , Thunderstorm Light Rain
6:04 PM 55.9 °F 54.0 °F 93% 29.68 in 10.0 mi WSW 15.0 mph - 0.00 in Rain Light Rain
6:53 PM 55.9 °F 52.0 °F 87% 29.69 in 10.0 mi West 16.1 mph - 0.00 in Rain Light Rain
7:53 PM 54.0 °F 48.9 °F 83% 29.73 in 10.0 mi WNW 5.8 mph - 0.01 in   Mostly Cloudy
8:53 PM 54.0 °F 50.0 °F 86% 29.73 in 10.0 mi NE 5.8 mph - 0.00 in   Mostly Cloudy
10:53 PM 53.1 °F 51.1 °F 93% 29.77 in 10.0 mi ENE 6.9 mph - 0.01 in Rain Light Rain
11:53 PM 53.1 °F 50.0 °F 89% 29.78 in 10.0 mi East 4.6 mph - 0.01 in   Mostly Cloudy